Content
SEND FEEDBACK

Daily
Averages
Monthly
Summary
United States of America

NIPOMO, CALIFORNIA


Home > North America > United States > California
Elevation: 360 feet     Latitude: 35 04N     Longitude: 120 30W

WEATHER
 
SELECT A DAY
Number of Records: 217,727;   Date Range: 1/1/95 - 7/23/14
 
SHARE

PRINT THIS DATA

[ ← Previous Day ]
WEATHER ALMANAC - JANUARY 31, 2013
[ Next Day → ]
[ °C ]   °F
Weather ElementAverageHighLow
Temperature51.8 °F71.1 °F (12:51 pm)37.9 °F (5:51 am)
Dewpoint41 °F50 °F (3:51 pm)36 °F (2:51 am)
Humidity70.3 %93 % (5:51 am)35 % (2:51 pm)
Barometer30.21 in30.27 in (1:51 am)30.16 in (2:51 pm)
Wind Speed2.6 mph8.1 mph (3:51 pm)
Weather ElementAverage
Visibility10 mi
Wind DirectionESE (110.4 °)

Weather ElementTotal
Precipitation---
Heating Degree Days10.5 (Base 65)
Growing Degree Days4.5 (Base 50)
Averaged from 23 records on January 31, 2013
WEATHER CONDITIONS BREAKOUT
WIND DIRECTION BREAKOUT
WEATHER BY HOUR - JANUARY 31, 2013
[ °C ]   °F
Local TimeTemperatureDewpointHumidityBarometerVisibilityWind DirectionWind SpeedGust SpeedPrecipitationEventsConditions
1:51 AM42.1 °F37.9 °F85 %30.27 in10.0 miCalmClear
2:51 AM39.0 °F36.0 °F89 %30.25 in10.0 miCalmClear
3:51 AM39.9 °F36.0 °F86 %30.24 in10.0 miESE (120°)3.5 mphClear
4:51 AM39.9 °F37.0 °F89 %30.23 in10.0 miCalmClear
5:51 AM37.9 °F36.0 °F93 %30.22 in10.0 miEast (90°)3.5 mphClear
6:51 AM39.0 °F36.0 °F89 %30.23 in10.0 miCalmClear
7:51 AM41.0 °F39.0 °F93 %30.24 in10.0 miCalmClear
8:51 AM53.1 °F41.0 °F64 %30.25 in10.0 miCalmClear
9:51 AM59.0 °F41.0 °F51 %30.25 in10.0 miCalmClear
10:51 AM63.0 °F43.0 °F48 %30.25 in10.0 miCalmClear
11:51 AM68.0 °F41.0 °F37 %30.22 in10.0 miCalmClear
12:51 PM71.1 °F43.0 °F36 %30.19 in10.0 miNW (320°)6.9 mphClear
1:51 PM70.0 °F45.0 °F41 %30.17 in10.0 miWNW (300°)5.8 mphClear
2:51 PM71.1 °F42.1 °F35 %30.16 in10.0 miWest (270°)5.8 mphClear
3:51 PM64.9 °F50.0 °F58 %30.16 in10.0 miWNW (290°)8.1 mphClear
4:51 PM59.0 °F46.0 °F62 %30.17 in10.0 miWNW (290°)8.1 mphClear
5:51 PM54.0 °F46.9 °F77 %30.17 in10.0 miWNW (290°)3.5 mphClear
6:51 PM51.1 °F45.0 °F80 %30.18 in10.0 miSouth (170°)3.5 mphClear
7:51 PM48.9 °F43.0 °F80 %30.19 in10.0 miCalmClear
8:51 PM46.9 °F41.0 °F80 %30.18 in10.0 miSSE (160°)4.6 mphClear
9:51 PM46.0 °F39.9 °F79 %30.18 in10.0 miESE (110°)3.5 mphClear
10:51 PM44.1 °F39.0 °F82 %30.17 in10.0 miSE (130°)3.5 mphClear
11:51 PM43.0 °F37.9 °F82 %30.17 in10.0 miCalmClear
Hourly data recorded from KSMX, located miles away from Nipomo, California







STORIES FROM OUR PARTNERS